{"data":{"norad_id":62526,"epoch":"2026-09-21T12:06:59.500512Z","epoch_age_seconds":84492,"freshness":"FRESH","line1":"1 62526U 25004R   26264.50485533  .00008573  00000+0  32067-3 0  9998","line2":"2 62526  43.0070 190.7488 0002465 264.7891  95.2680 15.27582218 96442","mean_motion":15.27582218,"eccentricity":0.0002465,"inclination_deg":43.007,"raan_deg":190.7488,"arg_perigee_deg":264.7891,"mean_anomaly_deg":95.268,"bstar":0.00032067,"rev_number":9644,"period_min":94.26661184138,"perigee_km":481.35117382222,"apogee_km":484.73373529332,"semimajor_km":6861.1794545578,"source":"CELESTRAK","updated_at":"2026-09-22T09:00:49.624478Z"}}